| time (UTC) | temp F | wind direction | speed MPH | gust MPH | rain 1hr in | rain 24hr in | rain mn in | humidity % | barometer mb |
| 20260507180247 | 60 | 195 | 1.0 | 2.0 | 0.00 | 0.00 | 0.00 | 61 | 1018.0 |
| 20260507175742 | 60 | 256 | 4.0 | 6.0 | 0.00 | 0.00 | 0.00 | 61 | 1018.1 |
| 20260507175239 | 60 | 14 | 2.0 | 3.0 | 0.00 | 0.00 | 0.00 | 60 | 1018.0 |
| 20260507174736 | 60 | 271 | 4.0 | 4.0 | 0.00 | 0.00 | 0.00 | 59 | 1018.1 |
| 20260507174235 | 59 | 100 | 1.0 | 2.0 | 0.00 | 0.00 | 0.00 | 64 | 1018.0 |
| 20260507173732 | 60 | 99 | 1.0 | 2.0 | 0.00 | 0.00 | 0.00 | 62 | 1017.9 |
| 20260507173229 | 59 | 32 | 1.0 | 1.0 | 0.00 | 0.00 | 0.00 | 63 | 1018.2 |
| 20260507172725 | 60 | 32 | 3.0 | 3.0 | 0.00 | 0.00 | 0.00 | 62 | 1018.2 |
| 20260507172222 | 60 | 99 | 1.0 | 1.0 | 0.00 | 0.00 | 0.00 | 62 | 1018.2 |
| 20260507171722 | 59 | 173 | 2.0 | 3.0 | 0.00 | 0.00 | 0.00 | 64 | 1018.4 |
| 20260507171220 | 59 | 46 | 1.0 | 1.0 | 0.00 | 0.00 | 0.00 | 64 | 1018.3 |
| 20260507170716 | 59 | 30 | 1.0 | 2.0 | 0.00 | 0.00 | 0.00 | 64 | 1018.3 |
| 20260507170214 | 57 | 289 | 2.0 | 4.0 | 0.00 | 0.00 | 0.00 | 65 | 1018.4 |
| 20260507165709 | 57 | 44 | 2.0 | 2.0 | 0.00 | 0.00 | 0.00 | 67 | 1018.2 |
| 20260507165206 | 58 | 19 | 3.0 | 4.0 | 0.00 | 0.00 | 0.00 | 66 | 1018.3 |
| 20260507164702 | 57 | 10 | 3.0 | 4.0 | 0.00 | 0.00 | 0.00 | 65 | 1018.2 |
| 20260507164159 | 57 | 18 | 2.0 | 3.0 | 0.00 | 0.00 | 0.00 | 66 | 1018.3 |
| 20260507163656 | 56 | 253 | 2.0 | 3.0 | 0.00 | 0.00 | 0.00 | 67 | 1018.3 |
| 20260507163154 | 56 | 30 | 2.0 | 3.0 | 0.00 | 0.00 | 0.00 | 68 | 1018.3 |
| 20260507162649 | 56 | 232 | 4.0 | 6.0 | 0.00 | 0.00 | 0.00 | 67 | 1018.3 |
| 20260507162146 | 55 | 24 | 2.0 | 3.0 | 0.00 | 0.00 | 0.00 | 68 | 1018.4 |
| 20260507161642 | 55 | 25 | 3.0 | 3.0 | 0.00 | 0.00 | 0.00 | 69 | 1018.5 |
| 20260507161139 | 56 | 28 | 2.0 | 3.0 | 0.00 | 0.00 | 0.00 | 68 | 1018.4 |
| 20260507160635 | 56 | 16 | 1.0 | 2.0 | 0.00 | 0.00 | 0.00 | 68 | 1018.4 |
| 20260507160132 | 56 | 1 | 4.0 | 6.0 | 0.00 | 0.00 | 0.00 | 68 | 1018.5 |
| 20260507155627 | 55 | 5 | 2.0 | 3.0 | 0.00 | 0.00 | 0.00 | 69 | 1018.3 |
| 20260507155124 | 55 | 349 | 2.0 | 3.0 | 0.00 | 0.00 | 0.00 | 69 | 1018.2 |
| 20260507154621 | 55 | 19 | 2.0 | 3.0 | 0.00 | 0.00 | 0.00 | 69 | 1018.3 |
| 20260507154119 | 55 | 25 | 3.0 | 4.0 | 0.00 | 0.00 | 0.00 | 69 | 1018.2 |
| 20260507153615 | 55 | 4 | 2.0 | 2.0 | 0.00 | 0.00 | 0.00 | 69 | 1018.1 |
| 20260507153111 | 55 | 29 | 1.0 | 1.0 | 0.00 | 0.00 | 0.00 | 70 | 1018.4 |
| 20260507152608 | 55 | 31 | 3.0 | 3.0 | 0.00 | 0.00 | 0.00 | 70 | 1018.1 |
| 20260507152104 | 55 | 4 | 1.0 | 2.0 | 0.00 | 0.00 | 0.00 | 71 | 1018.1 |
| 20260507151600 | 55 | 35 | 2.0 | 2.0 | 0.00 | 0.00 | 0.00 | 71 | 1018.3 |
| 20260507151057 | 55 | 9 | 4.0 | 4.0 | 0.00 | 0.00 | 0.00 | 71 | 1018.2 |
| 20260507150554 | 54 | 21 | 3.0 | 3.0 | 0.00 | 0.00 | 0.00 | 72 | 1018.4 |
| 20260507150051 | 54 | 21 | 2.0 | 2.0 | 0.00 | 0.00 | 0.00 | 72 | 1018.4 |
| 20260507145546 | 53 | 21 | 1.0 | 2.0 | 0.00 | 0.00 | 0.00 | 72 | 1018.3 |
| 20260507145044 | 54 | 25 | 1.0 | 2.0 | 0.00 | 0.00 | 0.00 | 72 | 1018.3 |
| 20260507144540 | 54 | 23 | 1.0 | 2.0 | 0.00 | 0.00 | 0.00 | 72 | 1018.3 |
| 20260507144038 | 53 | 24 | 1.0 | 2.0 | 0.00 | 0.00 | 0.00 | 72 | 1018.3 |
| 20260507143535 | 53 | 1 | 1.0 | 1.0 | 0.00 | 0.00 | 0.00 | 72 | 1018.4 |
| 20260507143032 | 53 | 1 | 3.0 | 3.0 | 0.00 | 0.00 | 0.00 | 72 | 1018.4 |
| 20260507142527 | 53 | 21 | 0.0 | 1.0 | 0.00 | 0.00 | 0.00 | 72 | 1018.3 |
| 20260507142025 | 53 | 20 | 0.0 | 1.0 | 0.00 | 0.00 | 0.00 | 73 | 1018.2 |
| 20260507141520 | 53 | 20 | 2.0 | 3.0 | 0.00 | 0.00 | 0.00 | 73 | 1018.3 |
| 20260507141012 | 53 | 20 | 2.0 | 2.0 | 0.00 | 0.00 | 0.00 | 74 | 1018.1 |
| 20260507140508 | 53 | 20 | 2.0 | 3.0 | 0.00 | 0.00 | 0.00 | 74 | 1018.1 |
| 20260507140006 | 52 | 20 | 1.0 | 1.0 | 0.00 | 0.00 | 0.00 | 74 | 1018.0 |
| 20260507135502 | 52 | 29 | 1.0 | 2.0 | 0.00 | 0.00 | 0.00 | 74 | 1018.1 |
| 20260507134959 | 52 | 20 | 2.0 | 3.0 | 0.00 | 0.00 | 0.00 | 74 | 1018.0 |
| 20260507134456 | 52 | 34 | 1.0 | 1.0 | 0.00 | 0.00 | 0.00 | 74 | 1017.7 |
| 20260507133952 | 52 | 24 | 0.0 | 1.0 | 0.00 | 0.00 | 0.00 | 75 | 1017.9 |
| 20260507133448 | 52 | 24 | 0.0 | 1.0 | 0.00 | 0.00 | 0.00 | 75 | 1017.7 |
| 20260507132947 | 52 | 21 | 0.0 | 0.0 | 0.00 | 0.00 | 0.00 | 75 | 1017.8 |
| 20260507132442 | 52 | 20 | 2.0 | 2.0 | 0.00 | 0.00 | 0.00 | 74 | 1017.9 |
| 20260507131939 | 52 | 21 | 1.0 | 1.0 | 0.00 | 0.00 | 0.00 | 75 | 1017.8 |
| 20260507131436 | 52 | 15 | 1.0 | 2.0 | 0.00 | 0.00 | 0.00 | 75 | 1017.9 |
| 20260507130933 | 52 | 21 | 1.0 | 2.0 | 0.00 | 0.00 | 0.00 | 75 | 1017.9 |
| 20260507130430 | 52 | 21 | 1.0 | 1.0 | 0.00 | 0.00 | 0.00 | 75 | 1017.8 |
| 20260507125929 | 52 | 21 | 2.0 | 3.0 | 0.00 | 0.00 | 0.00 | 75 | 1017.8 |
| 20260507125426 | 52 | 4 | 1.0 | 2.0 | 0.00 | 0.00 | 0.00 | 74 | 1017.8 |
| 20260507124924 | 52 | 24 | 0.0 | 1.0 | 0.00 | 0.00 | 0.00 | 75 | 1017.8 |
| 20260507124419 | 53 | 20 | 0.0 | 0.0 | 0.00 | 0.00 | 0.00 | 74 | 1018.0 |
| 20260507123918 | 53 | 24 | 1.0 | 1.0 | 0.00 | 0.00 | 0.00 | 74 | 1017.8 |
| 20260507123415 | 53 | 0 | 1.0 | 2.0 | 0.00 | 0.00 | 0.00 | 74 | 1018.1 |
| 20260507122912 | 53 | 20 | 0.0 | 0.0 | 0.00 | 0.00 | 0.00 | 74 | 1017.7 |
| 20260507122407 | 53 | 19 | 2.0 | 3.0 | 0.00 | 0.00 | 0.00 | 73 | 1018.0 |
| 20260507121903 | 53 | 29 | 1.0 | 1.0 | 0.00 | 0.00 | 0.00 | 74 | 1018.1 |
| 20260507121358 | 53 | 20 | 0.0 | 0.0 | 0.00 | 0.00 | 0.00 | 74 | 1018.0 |
| 20260507120855 | 53 | 20 | 0.0 | 1.0 | 0.00 | 0.00 | 0.00 | 75 | 1018.1 |
| 20260507120352 | 53 | 13 | 2.0 | 2.0 | 0.00 | 0.00 | 0.00 | 75 | 1018.0 |
| 20260507115848 | 53 | 20 | 2.0 | 2.0 | 0.00 | 0.00 | 0.00 | 75 | 1018.2 |
| 20260507115344 | 53 | 20 | 1.0 | 1.0 | 0.00 | 0.00 | 0.00 | 75 | 1018.1 |
| 20260507114839 | 53 | 16 | 2.0 | 2.0 | 0.00 | 0.00 | 0.00 | 75 | 1018.1 |
| 20260507114337 | 53 | 357 | 3.0 | 3.0 | 0.00 | 0.00 | 0.00 | 74 | 1018.3 |
| 20260507113834 | 53 | 359 | 1.0 | 1.0 | 0.00 | 0.00 | 0.00 | 74 | 1018.4 |
| 20260507113331 | 53 | 20 | 1.0 | 2.0 | 0.00 | 0.00 | 0.00 | 74 | 1018.2 |
| 20260507112829 | 53 | 20 | 0.0 | 0.0 | 0.00 | 0.00 | 0.00 | 75 | 1018.4 |
| 20260507112325 | 53 | 20 | 1.0 | 1.0 | 0.00 | 0.00 | 0.00 | 75 | 1018.3 |
| 20260507111824 | 53 | 21 | 0.0 | 1.0 | 0.00 | 0.00 | 0.00 | 75 | 1018.2 |
| 20260507111320 | 53 | 20 | 1.0 | 1.0 | 0.00 | 0.00 | 0.00 | 75 | 1018.4 |
| 20260507110816 | 53 | 20 | 1.0 | 1.0 | 0.00 | 0.00 | 0.00 | 74 | 1018.5 |
| 20260507110313 | 54 | 19 | 1.0 | 2.0 | 0.00 | 0.00 | 0.00 | 74 | 1018.2 |
| 20260507105810 | 54 | 20 | 1.0 | 2.0 | 0.00 | 0.00 | 0.00 | 74 | 1018.2 |
| 20260507105307 | 54 | 23 | 2.0 | 2.0 | 0.00 | 0.00 | 0.00 | 73 | 1018.3 |
| 20260507104803 | 53 | 26 | 1.0 | 2.0 | 0.00 | 0.00 | 0.00 | 74 | 1018.5 |
| 20260507104259 | 54 | 20 | 1.0 | 2.0 | 0.00 | 0.00 | 0.00 | 74 | 1018.5 |
| 20260507103755 | 54 | 19 | 2.0 | 3.0 | 0.00 | 0.00 | 0.00 | 74 | 1018.4 |
| 20260507103252 | 54 | 20 | 3.0 | 3.0 | 0.00 | 0.00 | 0.00 | 74 | 1018.5 |
| 20260507102748 | 54 | 24 | 1.0 | 1.0 | 0.00 | 0.00 | 0.00 | 74 | 1018.6 |
| 20260507102245 | 54 | 16 | 2.0 | 3.0 | 0.00 | 0.00 | 0.00 | 74 | 1018.5 |
| 20260507101741 | 54 | 22 | 2.0 | 2.0 | 0.00 | 0.00 | 0.00 | 75 | 1018.5 |
| 20260507101236 | 54 | 21 | 1.0 | 1.0 | 0.00 | 0.00 | 0.00 | 75 | 1018.4 |
| 20260507100735 | 54 | 9 | 3.0 | 3.0 | 0.00 | 0.00 | 0.00 | 75 | 1018.6 |
| 20260507100233 | 54 | 21 | 2.0 | 2.0 | 0.00 | 0.00 | 0.00 | 75 | 1018.6 |
| 20260507095730 | 54 | 12 | 3.0 | 3.0 | 0.00 | 0.00 | 0.00 | 75 | 1018.5 |
| 20260507095226 | 54 | 23 | 2.0 | 2.0 | 0.00 | 0.00 | 0.00 | 75 | 1018.6 |
| 20260507094723 | 54 | 352 | 4.0 | 6.0 | 0.00 | 0.00 | 0.00 | 75 | 1018.7 |
| 20260507094220 | 54 | 12 | 2.0 | 3.0 | 0.00 | 0.00 | 0.00 | 75 | 1018.6 |
| 20260507093717 | 54 | 10 | 2.0 | 3.0 | 0.00 | 0.00 | 0.00 | 75 | 1018.6 |
| 20260507093215 | 55 | 12 | 0.0 | 0.0 | 0.00 | 0.00 | 0.00 | 75 | 1018.5 |
| 20260507092712 | 54 | 16 | 2.0 | 2.0 | 0.00 | 0.00 | 0.00 | 75 | 1018.7 |
| 20260507092209 | 54 | 14 | 2.0 | 2.0 | 0.00 | 0.00 | 0.00 | 75 | 1018.8 |
| 20260507091705 | 55 | 14 | 0.0 | 0.0 | 0.00 | 0.00 | 0.00 | 75 | 1018.9 |
| 20260507091202 | 55 | 359 | 2.0 | 2.0 | 0.00 | 0.00 | 0.00 | 74 | 1018.7 |
| 20260507090657 | 54 | 10 | 1.0 | 2.0 | 0.00 | 0.00 | 0.00 | 74 | 1018.8 |
| 20260507090154 | 54 | 12 | 2.0 | 2.0 | 0.00 | 0.00 | 0.00 | 75 | 1018.8 |
| 20260507085651 | 55 | 80 | 2.0 | 3.0 | 0.00 | 0.00 | 0.00 | 75 | 1018.9 |
| 20260507085148 | 55 | 80 | 0.0 | 1.0 | 0.00 | 0.00 | 0.00 | 75 | 1019.0 |
| 20260507084645 | 55 | 80 | 2.0 | 2.0 | 0.00 | 0.00 | 0.00 | 75 | 1018.9 |
| 20260507084141 | 55 | 23 | 2.0 | 2.0 | 0.00 | 0.00 | 0.00 | 75 | 1018.8 |
| 20260507083638 | 55 | 14 | 0.0 | 1.0 | 0.00 | 0.00 | 0.00 | 76 | 1018.8 |
| 20260507083135 | 55 | 14 | 0.0 | 0.0 | 0.00 | 0.00 | 0.00 | 76 | 1019.0 |
| 20260507082631 | 55 | 11 | 1.0 | 2.0 | 0.00 | 0.00 | 0.00 | 76 | 1019.0 |
| 20260507082128 | 55 | 14 | 0.0 | 1.0 | 0.00 | 0.00 | 0.00 | 76 | 1018.9 |
| 20260507081624 | 55 | 11 | 2.0 | 2.0 | 0.00 | 0.00 | 0.00 | 76 | 1018.8 |
| 20260507081121 | 55 | 14 | 2.0 | 2.0 | 0.00 | 0.00 | 0.00 | 75 | 1018.9 |
| 20260507080617 | 55 | 0 | 1.0 | 2.0 | 0.00 | 0.00 | 0.00 | 75 | 1018.7 |
| 20260507080114 | 55 | 9 | 1.0 | 2.0 | 0.00 | 0.00 | 0.00 | 75 | 1019.1 |
| 20260507075608 | 55 | 356 | 1.0 | 2.0 | 0.00 | 0.00 | 0.00 | 75 | 1018.8 |
| 20260507075105 | 55 | 11 | 1.0 | 1.0 | 0.00 | 0.00 | 0.00 | 75 | 1018.8 |
| 20260507074602 | 55 | 11 | 2.0 | 2.0 | 0.00 | 0.00 | 0.00 | 75 | 1019.0 |
| 20260507074101 | 55 | 8 | 2.0 | 4.0 | 0.00 | 0.00 | 0.00 | 76 | 1018.9 |
| 20260507073556 | 55 | 9 | 4.0 | 4.0 | 0.00 | 0.00 | 0.00 | 76 | 1018.9 |
| 20260507073053 | 55 | 352 | 2.0 | 2.0 | 0.00 | 0.00 | 0.00 | 76 | 1018.9 |
| 20260507072550 | 56 | 353 | 2.0 | 3.0 | 0.00 | 0.00 | 0.00 | 76 | 1018.6 |
| 20260507072047 | 55 | 2 | 1.0 | 1.0 | 0.00 | 0.00 | 0.00 | 76 | 1018.8 |
| 20260507071545 | 56 | 8 | 2.0 | 2.0 | 0.00 | 0.00 | 0.00 | 75 | 1019.0 |
| 20260507071041 | 56 | 11 | 1.0 | 2.0 | 0.00 | 0.00 | 0.00 | 76 | 1018.7 |
| 20260507070538 | 56 | 13 | 1.0 | 2.0 | 0.00 | 0.00 | 0.00 | 76 | 1018.6 |
| 20260507070035 | 56 | 344 | 1.0 | 2.0 | 0.00 | 0.00 | 0.00 | 76 | 1018.8 |
| 20260507065532 | 56 | 3 | 2.0 | 2.0 | 0.00 | 0.00 | 0.00 | 76 | 1018.7 |
| 20260507065029 | 56 | 1 | 3.0 | 3.0 | 0.00 | 0.00 | 0.00 | 76 | 1018.7 |
| 20260507064527 | 56 | 0 | 1.0 | 2.0 | 0.00 | 0.00 | 0.00 | 76 | 1018.6 |
| 20260507064025 | 56 | 20 | 2.0 | 2.0 | 0.00 | 0.00 | 0.00 | 76 | 1018.5 |
| 20260507063522 | 56 | 0 | 2.0 | 3.0 | 0.00 | 0.00 | 0.00 | 76 | 1018.7 |
| 20260507063020 | 56 | 329 | 5.0 | 8.0 | 0.00 | 0.00 | 0.00 | 76 | 1018.9 |
| 20260507062516 | 56 | 10 | 1.0 | 1.0 | 0.00 | 0.00 | 0.00 | 75 | 1018.7 |
| 20260507062014 | 56 | 357 | 0.0 | 1.0 | 0.00 | 0.00 | 0.00 | 76 | 1018.9 |
| 20260507061511 | 56 | 17 | 0.0 | 0.0 | 0.00 | 0.00 | 0.00 | 76 | 1018.9 |
| 20260507061009 | 57 | 17 | 1.0 | 2.0 | 0.00 | 0.00 | 0.00 | 76 | 1018.7 |
| 20260507060506 | 57 | 15 | 1.0 | 2.0 | 0.00 | 0.00 | 0.00 | 77 | 1018.8 |
| 20260507060004 | 57 | 25 | 2.0 | 3.0 | 0.00 | 0.00 | 0.00 | 77 | 1018.5 |
| 20260507055458 | 57 | 356 | 0.0 | 1.0 | 0.00 | 0.00 | 0.00 | 77 | 1018.5 |
| 20260507054955 | 57 | 15 | 5.0 | 6.0 | 0.00 | 0.00 | 0.00 | 77 | 1018.6 |
| 20260507054450 | 58 | 16 | 1.0 | 1.0 | 0.00 | 0.00 | 0.00 | 76 | 1018.4 |
| 20260507053948 | 58 | 16 | 1.0 | 1.0 | 0.00 | 0.00 | 0.00 | 76 | 1018.6 |
| 20260507053446 | 58 | 17 | 0.0 | 1.0 | 0.00 | 0.00 | 0.00 | 76 | 1018.4 |
| 20260507052944 | 58 | 15 | 1.0 | 1.0 | 0.00 | 0.00 | 0.00 | 76 | 1018.2 |
| 20260507052441 | 58 | 22 | 4.0 | 4.0 | 0.00 | 0.00 | 0.00 | 75 | 1018.4 |
| 20260507051938 | 58 | 13 | 4.0 | 4.0 | 0.00 | 0.00 | 0.00 | 75 | 1018.6 |
| 20260507051436 | 59 | 13 | 1.0 | 2.0 | 0.00 | 0.00 | 0.00 | 74 | 1018.6 |
| 20260507050932 | 59 | 15 | 4.0 | 4.0 | 0.00 | 0.00 | 0.00 | 75 | 1018.5 |
| 20260507050429 | 59 | 36 | 1.0 | 1.0 | 0.00 | 0.00 | 0.00 | 75 | 1018.6 |
| 20260507045926 | 59 | 11 | 2.0 | 3.0 | 0.00 | 0.00 | 0.00 | 74 | 1018.5 |
| 20260507045422 | 59 | 15 | 1.0 | 2.0 | 0.00 | 0.00 | 0.00 | 75 | 1018.6 |
| 20260507044920 | 59 | 26 | 2.0 | 2.0 | 0.00 | 0.00 | 0.00 | 75 | 1018.7 |
| 20260507044416 | 59 | 36 | 2.0 | 3.0 | 0.00 | 0.00 | 0.00 | 75 | 1018.3 |
| 20260507043912 | 60 | 16 | 1.0 | 1.0 | 0.00 | 0.00 | 0.00 | 74 | 1018.5 |
| 20260507043409 | 60 | 25 | 1.0 | 2.0 | 0.00 | 0.00 | 0.00 | 77 | 1018.4 |
| 20260507042905 | 60 | 92 | 2.0 | 3.0 | 0.00 | 0.00 | 0.00 | 77 | 1018.4 |
| 20260507042402 | 59 | 46 | 1.0 | 2.0 | 0.00 | 0.00 | 0.00 | 78 | 1018.3 |
| 20260507041852 | 59 | 94 | 2.0 | 2.0 | 0.00 | 0.00 | 0.00 | 77 | 1018.4 |
| 20260507041349 | 58 | 94 | 1.0 | 1.0 | 0.00 | 0.00 | 0.00 | 78 | 1018.3 |
| 20260507040847 | 59 | 94 | 1.0 | 1.0 | 0.00 | 0.00 | 0.00 | 77 | 1018.0 |
| 20260507040342 | 59 | 106 | 1.0 | 1.0 | 0.00 | 0.00 | 0.00 | 78 | 1018.0 |
| 20260507035838 | 59 | 130 | 2.0 | 2.0 | 0.00 | 0.00 | 0.00 | 78 | 1017.8 |
| 20260507035334 | 59 | 127 | 3.0 | 3.0 | 0.00 | 0.00 | 0.00 | 77 | 1018.0 |
| 20260507034832 | 59 | 118 | 2.0 | 3.0 | 0.00 | 0.00 | 0.00 | 77 | 1017.9 |
| 20260507034329 | 59 | 94 | 2.0 | 3.0 | 0.00 | 0.00 | 0.00 | 77 | 1017.7 |
| 20260507033827 | 59 | 108 | 1.0 | 2.0 | 0.00 | 0.00 | 0.00 | 76 | 1017.5 |
| 20260507033325 | 59 | 109 | 0.0 | 1.0 | 0.00 | 0.00 | 0.00 | 75 | 1017.7 |
| 20260507032821 | 60 | 152 | 1.0 | 1.0 | 0.00 | 0.00 | 0.00 | 75 | 1017.6 |
| 20260507032317 | 60 | 151 | 1.0 | 1.0 | 0.00 | 0.00 | 0.00 | 74 | 1017.4 |
| 20260507031814 | 60 | 164 | 2.0 | 3.0 | 0.00 | 0.00 | 0.00 | 74 | 1017.5 |
| 20260507031311 | 61 | 163 | 2.0 | 3.0 | 0.00 | 0.00 | 0.00 | 73 | 1017.3 |
| 20260507030807 | 60 | 164 | 0.0 | 1.0 | 0.00 | 0.00 | 0.00 | 73 | 1017.4 |
| 20260507030305 | 61 | 173 | 2.0 | 2.0 | 0.00 | 0.00 | 0.00 | 73 | 1017.3 |
| 20260507025802 | 61 | 172 | 2.0 | 3.0 | 0.00 | 0.00 | 0.00 | 71 | 1017.2 |
| 20260507025259 | 61 | 173 | 3.0 | 3.0 | 0.00 | 0.00 | 0.00 | 72 | 1017.0 |
| 20260507024757 | 62 | 158 | 2.0 | 3.0 | 0.00 | 0.00 | 0.00 | 71 | 1017.1 |
| 20260507024254 | 62 | 176 | 2.0 | 3.0 | 0.00 | 0.00 | 0.00 | 70 | 1017.0 |
| 20260507023749 | 62 | 148 | 2.0 | 3.0 | 0.00 | 0.00 | 0.00 | 71 | 1016.9 |
| 20260507023246 | 62 | 137 | 3.0 | 4.0 | 0.00 | 0.00 | 0.00 | 72 | 1016.9 |
| 20260507022744 | 62 | 155 | 2.0 | 3.0 | 0.00 | 0.00 | 0.00 | 69 | 1017.0 |
| 20260507022240 | 63 | 154 | 1.0 | 1.0 | 0.00 | 0.00 | 0.00 | 69 | 1016.9 |
| 20260507021736 | 64 | 173 | 1.0 | 2.0 | 0.00 | 0.00 | 0.00 | 68 | 1016.9 |
| 20260507021232 | 64 | 106 | 2.0 | 2.0 | 0.00 | 0.00 | 0.00 | 67 | 1017.2 |
| 20260507020730 | 64 | 96 | 2.0 | 2.0 | 0.00 | 0.00 | 0.00 | 68 | 1016.8 |
| 20260507020226 | 64 | 153 | 5.0 | 7.0 | 0.00 | 0.00 | 0.00 | 67 | 1016.9 |
| 20260507015724 | 64 | 174 | 4.0 | 4.0 | 0.00 | 0.00 | 0.00 | 68 | 1017.0 |
| 20260507015221 | 65 | 166 | 5.0 | 6.0 | 0.00 | 0.00 | 0.00 | 68 | 1017.2 |
| 20260507014718 | 65 | 176 | 6.0 | 8.0 | 0.00 | 0.00 | 0.00 | 67 | 1017.0 |
| 20260507014214 | 66 | 171 | 4.0 | 6.0 | 0.00 | 0.00 | 0.00 | 67 | 1016.9 |
| 20260507013711 | 67 | 199 | 3.0 | 4.0 | 0.00 | 0.00 | 0.00 | 65 | 1017.1 |
| 20260507013208 | 67 | 200 | 5.0 | 6.0 | 0.00 | 0.00 | 0.00 | 66 | 1017.2 |
| 20260507012706 | 68 | 187 | 2.0 | 3.0 | 0.00 | 0.00 | 0.00 | 62 | 1017.2 |
| 20260507012201 | 67 | 147 | 3.0 | 4.0 | 0.00 | 0.00 | 0.00 | 64 | 1016.9 |
| 20260507011659 | 68 | 196 | 3.0 | 3.0 | 0.00 | 0.00 | 0.00 | 62 | 1016.9 |
| 20260507011155 | 67 | 173 | 4.0 | 6.0 | 0.00 | 0.00 | 0.00 | 64 | 1016.9 |
| 20260507010654 | 68 | 137 | 2.0 | 2.0 | 0.00 | 0.00 | 0.00 | 62 | 1016.9 |
| 20260507010150 | 68 | 181 | 3.0 | 4.0 | 0.00 | 0.00 | 0.00 | 60 | 1016.7 |
| 20260507005648 | 70 | 170 | 4.0 | 7.0 | 0.00 | 0.00 | 0.00 | 58 | 1016.8 |
| 20260507005144 | 70 | 220 | 4.0 | 6.0 | 0.00 | 0.00 | 0.00 | 58 | 1017.0 |
| 20260507004641 | 70 | 234 | 2.0 | 3.0 | 0.00 | 0.00 | 0.00 | 57 | 1017.1 |
| 20260507004139 | 70 | 187 | 4.0 | 6.0 | 0.00 | 0.00 | 0.00 | 58 | 1016.7 |
| 20260507003635 | 71 | 303 | 5.0 | 7.0 | 0.00 | 0.00 | 0.00 | 57 | 1017.0 |
| 20260507003130 | 71 | 287 | 2.0 | 3.0 | 0.00 | 0.00 | 0.00 | 58 | 1017.0 |
| 20260507002627 | 70 | 304 | 5.0 | 8.0 | 0.00 | 0.00 | 0.00 | 58 | 1016.9 |
| 20260507002122 | 72 | 275 | 4.0 | 6.0 | 0.00 | 0.00 | 0.00 | 57 | 1017.1 |
| 20260507001619 | 73 | 276 | 1.0 | 2.0 | 0.00 | 0.00 | 0.00 | 57 | 1016.8 |
| 20260507001117 | 73 | 272 | 2.0 | 3.0 | 0.00 | 0.00 | 0.00 | 56 | 1016.9 |
| 20260507000613 | 72 | 101 | 6.0 | 8.0 | 0.00 | 0.00 | 0.00 | 62 | 1016.7 |
| 20260507000108 | 72 | 242 | 3.0 | 3.0 | 0.00 | 0.00 | 0.00 | 56 | 1016.8 |
| 20260506235606 | 73 | 240 | 3.0 | 3.0 | 0.00 | 0.00 | 0.00 | 56 | 1016.8 |
| 20260506235106 | 73 | 197 | 3.0 | 3.0 | 0.00 | 0.00 | 0.00 | 55 | 1016.9 |
| 20260506234604 | 72 | 244 | 3.0 | 4.0 | 0.00 | 0.00 | 0.00 | 57 | 1016.9 |
| 20260506234101 | 73 | 269 | 4.0 | 4.0 | 0.00 | 0.00 | 0.00 | 55 | 1016.6 |
| 20260506233558 | 73 | 206 | 3.0 | 4.0 | 0.00 | 0.00 | 0.00 | 55 | 1016.9 |
| 20260506233054 | 73 | 258 | 5.0 | 8.0 | 0.00 | 0.00 | 0.00 | 55 | 1017.0 |
| 20260506232551 | 72 | 168 | 5.0 | 6.0 | 0.00 | 0.00 | 0.00 | 61 | 1016.7 |
| 20260506232046 | 71 | 264 | 3.0 | 4.0 | 0.00 | 0.00 | 0.00 | 61 | 1016.7 |
| 20260506231544 | 72 | 144 | 3.0 | 4.0 | 0.00 | 0.00 | 0.00 | 58 | 1017.0 |
| 20260506231042 | 75 | 102 | 2.0 | 3.0 | 0.00 | 0.00 | 0.00 | 58 | 1016.9 |
| 20260506230538 | 74 | 176 | 1.0 | 1.0 | 0.00 | 0.00 | 0.00 | 54 | 1017.0 |
| 20260506230035 | 73 | 304 | 1.0 | 2.0 | 0.00 | 0.00 | 0.00 | 55 | 1016.9 |
| 20260506225532 | 73 | 307 | 5.0 | 6.0 | 0.00 | 0.00 | 0.00 | 57 | 1017.2 |
| 20260506225028 | 75 | 173 | 3.0 | 4.0 | 0.00 | 0.00 | 0.00 | 54 | 1017.0 |
| 20260506224525 | 73 | 234 | 2.0 | 2.0 | 0.00 | 0.00 | 0.00 | 59 | 1017.2 |
| 20260506224022 | 70 | 141 | 1.0 | 1.0 | 0.00 | 0.00 | 0.00 | 61 | 1017.3 |
| 20260506223517 | 71 | 146 | 5.0 | 7.0 | 0.00 | 0.00 | 0.00 | 60 | 1017.3 |
| 20260506223014 | 71 | 149 | 2.0 | 3.0 | 0.00 | 0.00 | 0.00 | 61 | 1017.5 |
| 20260506222511 | 70 | 160 | 4.0 | 4.0 | 0.00 | 0.00 | 0.00 | 64 | 1017.3 |
| 20260506222008 | 70 | 157 | 6.0 | 8.0 | 0.00 | 0.00 | 0.00 | 65 | 1017.5 |
| 20260506221505 | 72 | 169 | 3.0 | 6.0 | 0.00 | 0.00 | 0.00 | 59 | 1017.7 |
| 20260506221003 | 73 | 141 | 3.0 | 6.0 | 0.00 | 0.00 | 0.00 | 59 | 1017.5 |
| 20260506220458 | 73 | 138 | 1.0 | 1.0 | 0.00 | 0.00 | 0.00 | 55 | 1017.4 |
| 20260506215955 | 72 | 145 | 5.0 | 7.0 | 0.00 | 0.00 | 0.00 | 59 | 1017.4 |
| 20260506215451 | 73 | 181 | 5.0 | 7.0 | 0.00 | 0.00 | 0.00 | 58 | 1017.5 |
| 20260506214947 | 72 | 154 | 2.0 | 3.0 | 0.00 | 0.00 | 0.00 | 60 | 1017.5 |
| 20260506214444 | 71 | 143 | 3.0 | 4.0 | 0.00 | 0.00 | 0.00 | 63 | 1017.4 |
| 20260506213942 | 69 | 119 | 7.0 | 9.0 | 0.00 | 0.00 | 0.00 | 65 | 1017.3 |
| 20260506213439 | 70 | 182 | 5.0 | 6.0 | 0.00 | 0.00 | 0.00 | 66 | 1017.4 |
| 20260506212936 | 69 | 136 | 3.0 | 3.0 | 0.00 | 0.00 | 0.00 | 64 | 1017.7 |
| 20260506212432 | 71 | 144 | 5.0 | 7.0 | 0.00 | 0.00 | 0.00 | 62 | 1017.6 |
| 20260506211932 | 69 | 148 | 2.0 | 2.0 | 0.00 | 0.00 | 0.00 | 63 | 1017.7 |
| 20260506211429 | 68 | 82 | 0.0 | 1.0 | 0.00 | 0.00 | 0.00 | 64 | 1017.9 |
| 20260506210926 | 69 | 259 | 1.0 | 2.0 | 0.00 | 0.00 | 0.00 | 63 | 1018.1 |
| 20260506210422 | 69 | 216 | 3.0 | 3.0 | 0.00 | 0.00 | 0.00 | 63 | 1017.9 |
| 20260506205920 | 70 | 89 | 1.0 | 2.0 | 0.00 | 0.00 | 0.00 | 64 | 1018.0 |
| 20260506205415 | 69 | 228 | 2.0 | 3.0 | 0.00 | 0.00 | 0.00 | 64 | 1018.0 |
| 20260506204912 | 68 | 95 | 1.0 | 2.0 | 0.00 | 0.00 | 0.00 | 67 | 1018.1 |
| 20260506204410 | 70 | 192 | 5.0 | 7.0 | 0.00 | 0.00 | 0.00 | 67 | 1017.8 |
| 20260506203907 | 68 | 102 | 5.0 | 6.0 | 0.00 | 0.00 | 0.00 | 68 | 1017.9 |
| 20260506203404 | 67 | 148 | 4.0 | 6.0 | 0.00 | 0.00 | 0.00 | 72 | 1017.9 |
| 20260506202901 | 67 | 152 | 5.0 | 7.0 | 0.00 | 0.00 | 0.00 | 71 | 1017.9 |
| 20260506202358 | 67 | 244 | 4.0 | 4.0 | 0.00 | 0.00 | 0.00 | 71 | 1018.0 |
| 20260506201855 | 67 | 301 | 4.0 | 6.0 | 0.00 | 0.00 | 0.00 | 69 | 1018.0 |
| 20260506201352 | 67 | 301 | 4.0 | 6.0 | 0.00 | 0.00 | 0.00 | 69 | 1017.9 |
| 20260506200849 | 0 | 0.0 | 0.0 | 0.00 | 0.00 | 0.00 | 1017.8 | ||
| 20260506200345 | 0 | 0.0 | 0.0 | 0.00 | 0.00 | 0.00 | 1018.2 | ||
| 20260506195841 | 0 | 0.0 | 0.0 | 0.00 | 0.00 | 0.00 | 1018.1 | ||
| 20260506195338 | 0 | 0.0 | 0.0 | 0.00 | 0.00 | 0.00 | 1018.4 | ||
| 20260506194835 | 0 | 0.0 | 0.0 | 0.00 | 0.00 | 0.00 | 1018.5 | ||
| 20260506194332 | 65 | 211 | 2.0 | 3.0 | 0.00 | 0.00 | 0.00 | 71 | 1018.3 |
| 20260506193829 | 65 | 211 | 2.0 | 3.0 | 0.00 | 0.00 | 0.00 | 71 | 1018.7 |
| 20260506193326 | 65 | 195 | 1.0 | 2.0 | 0.00 | 0.00 | 0.00 | 73 | 1018.5 |
| 20260506192822 | 64 | 139 | 0.0 | 0.0 | 0.00 | 0.00 | 0.00 | 73 | 1018.3 |
| 20260506192319 | 64 | 188 | 3.0 | 3.0 | 0.00 | 0.00 | 0.00 | 74 | 1018.4 |
| 20260506191816 | 64 | 123 | 2.0 | 3.0 | 0.00 | 0.00 | 0.00 | 75 | 1018.3 |
| 20260506191312 | 64 | 132 | 3.0 | 3.0 | 0.00 | 0.00 | 0.00 | 75 | 1018.5 |
| 20260506190810 | 65 | 176 | 1.0 | 1.0 | 0.00 | 0.00 | 0.00 | 71 | 1018.3 |
| 20260506190306 | 63 | 132 | 4.0 | 4.0 | 0.00 | 0.00 | 0.00 | 74 | 1018.4 |
| 20260506185803 | 64 | 152 | 4.0 | 4.0 | 0.00 | 0.00 | 0.00 | 73 | 1018.5 |
| 20260506185300 | 63 | 193 | 2.0 | 2.0 | 0.00 | 0.00 | 0.00 | 75 | 1018.3 |
| 20260506184757 | 63 | 277 | 4.0 | 4.0 | 0.00 | 0.00 | 0.00 | 76 | 1018.2 |
| 20260506184254 | 64 | 199 | 4.0 | 7.0 | 0.00 | 0.00 | 0.00 | 75 | 1018.3 |
| 20260506183751 | 63 | 206 | 7.0 | 8.0 | 0.00 | 0.00 | 0.00 | 75 | 1018.3 |
| 20260506183252 | 62 | 215 | 8.0 | 10.0 | 0.00 | 0.00 | 0.00 | 79 | 1018.3 |
| 20260506182749 | 63 | 180 | 4.0 | 6.0 | 0.00 | 0.00 | 0.00 | 77 | 1018.4 |
| 20260506182246 | 64 | 113 | 2.0 | 4.0 | 0.00 | 0.00 | 0.00 | 75 | 1018.3 |